Location: LDNL
(36.4545°S, 141.6685°E)
Time: 04:05:23
(UTC+11:00)

A-11 Canister half - Pass Details

Date: 12 August 2022
Orbit: 1524 x 1684 km, 47.3° (Epoch: 05 October)

Event Time Altitude Azimuth Distance (km) Brightness Sun altitude
Rises 23:24:20 0° 238° (WSW) 4,702 11.9 -62.8°
Reaches altitude 10° 23:27:22 10° 236° (SW) 3,727 11.3 -63.2°
Enters shadow 23:27:24 10° 236° (SW) 3,717 11.3 -63.2°
Maximum altitude 23:36:51 79° 149° (SSE) 1,597 - -64.4°
Drops below altitude 10° 23:46:34 10° 61° (ENE) 3,818 - -65.5°
Sets 23:49:42 0° 60° (ENE) 4,821 - -65.8°
